Tracking 27122 objects as of 24-Mar-2023
HD Live streaming from Space Station
objects crossing your sky now

STARLINK-1647

Track STARLINK-1647 now!
10-day predictions
STARLINK-1647 is classified as:


NORAD ID: 47978
Int'l Code: 2021-024B
Perigee: 553.5 km
Apogee: 554.8 km
Inclination: 53.1 °
Period: 95.6 minutes
Semi major axis: 6925 km
RCS: Unknown
Launch date: March 24, 2021
Source: United States (US)
Launch site: AIR FORCE EASTERN TEST RANGE (AFETR)
Your satellite tracking list
Your tracking list is empty




NASA's NSSDC Master Catalog

Two Line Element Set (TLE):
1 47978U 21024B   23083.45401117  .00113729  00000-0  75177-2 0  9995
2 47978  53.0529 150.4715 0000951 113.8007 246.3081 15.06470051111061
Source of the keplerian elements: AFSPC